Location: Grandview
(34.8900°N, 117.1058°W)
Time: 11:17:21
(UTC-08:00)

CUTE 1.7 + AOD 2 - Visible Passes

Search period start: 16 December 2018 00:00
Search period end: 26 December 2018 00:00
Orbit: 594 x 613 km, 97.5° (Epoch: 16 December)

Date Brightness Start Highest point End Pass type
(mag) Time Alt. Az. Time Alt. Az. Time Alt. Az.
16 Dec ? 05:21:23 10° NE 05:25:01 28° E 05:28:37 10° SSE visible
16 Dec ? 17:45:28 10° S 17:49:29 41° W 17:53:31 10° NNW visible
17 Dec ? 05:33:16 10° NNE 05:37:13 39° E 05:41:08 10° SSE visible
17 Dec ? 17:57:58 10° SSW 18:01:41 29° W 18:05:25 10° NW visible
18 Dec ? 05:45:16 10° NNE 05:49:24 57° E 05:53:30 10° S visible
18 Dec ? 18:10:40 10° SW 18:13:54 21° W 18:17:10 10° NW visible
19 Dec ? 05:57:21 10° NNE 06:01:34 83° ESE 06:05:44 10° S visible
19 Dec ? 18:23:40 10° SW 18:26:09 15° W 18:28:39 10° WNW visible
20 Dec ? 06:09:32 10° N 06:13:42 69° WNW 06:17:51 10° SSW visible
20 Dec ? 18:37:29 10° WSW 18:38:25 11° W 18:39:21 10° W visible
21 Dec ? 04:48:42 10° ENE 04:49:48 11° E 04:50:53 10° ESE visible
21 Dec ? 06:21:48 10° N 06:25:50 48° WNW 06:29:51 10° SSW visible
21 Dec ? 17:10:17 10° SSE 17:14:30 73° ENE 17:18:44 10° N visible
22 Dec ? 04:59:31 10° NE 05:02:03 16° E 05:04:34 10° SE visible
22 Dec ? 17:22:24 10° S 17:26:39 79° W 17:30:54 10° NNW visible
23 Dec ? 05:11:02 10° NE 05:14:18 22° E 05:17:32 10° SSE visible
23 Dec ? 17:34:40 10° S 17:38:49 55° W 17:42:58 10° NNW visible
24 Dec ? 05:22:48 10° NE 05:26:31 30° E 05:30:12 10° SSE visible
24 Dec ? 17:47:03 10° SSW 17:51:00 38° W 17:54:57 10° NNW visible
25 Dec ? 05:34:42 10° NNE 05:38:42 43° E 05:42:41 10° S visible
25 Dec ? 17:59:35 10° SSW 18:03:12 27° W 18:06:49 10° NW visible
